Year,Month,Day,Hour,Minute,Value (Times are PST for temperature in C)
2017,04,12,14,22,8.80
2017,04,12,14,23,8.80
2017,04,12,14,24,8.80
2017,04,12,14,25,8.90
2017,04,12,14,26,9.00
2017,04,12,14,27,9.00
2017,04,12,14,28,9.00
2017,04,12,14,29,9.10
2017,04,12,14,30,9.10
2017,04,12,14,31,9.10
2017,04,12,14,32,9.10
2017,04,12,14,33,9.10
2017,04,12,14,34,9.10
2017,04,12,14,35,9.10
2017,04,12,14,36,9.10
2017,04,12,14,37,9.10
2017,04,12,14,38,9.10
2017,04,12,14,39,9.10
2017,04,12,14,40,9.10
2017,04,12,14,41,9.10
2017,04,12,14,42,9.10
2017,04,12,14,43,9.20
2017,04,12,14,44,9.20
2017,04,12,14,45,9.20
2017,04,12,14,46,9.20
2017,04,12,14,47,9.20
2017,04,12,14,48,9.30
2017,04,12,14,49,9.30
2017,04,12,14,50,9.30
2017,04,12,14,51,9.40
2017,04,12,14,52,9.30
2017,04,12,14,53,9.40
2017,04,12,14,54,9.40
2017,04,12,14,55,9.30
2017,04,12,14,56,9.30
2017,04,12,14,57,9.30
2017,04,12,14,58,9.40
2017,04,12,14,59,9.40
2017,04,12,15,00,9.40
2017,04,12,15,01,9.50
2017,04,12,15,02,9.50
2017,04,12,15,03,9.50
2017,04,12,15,04,9.50
2017,04,12,15,05,9.60
2017,04,12,15,06,9.60
2017,04,12,15,07,9.60
2017,04,12,15,08,9.60
2017,04,12,15,09,9.60
2017,04,12,15,10,9.60
2017,04,12,15,11,9.60
2017,04,12,15,12,9.60
2017,04,12,15,13,9.60
2017,04,12,15,14,9.60
2017,04,12,15,15,9.60
2017,04,12,15,16,9.60
2017,04,12,15,17,9.60
2017,04,12,15,18,9.60
2017,04,12,15,19,9.60
2017,04,12,15,20,9.70
2017,04,12,15,21,9.70
2017,04,12,15,22,9.70
2017,04,12,15,23,9.80
2017,04,12,15,24,9.70
2017,04,12,15,25,9.70
2017,04,12,15,26,9.80
2017,04,12,15,27,9.80
2017,04,12,15,28,9.80
2017,04,12,15,29,9.80
2017,04,12,15,30,9.80
2017,04,12,15,31,9.80
2017,04,12,15,32,9.80
2017,04,12,15,33,9.80
2017,04,12,15,34,9.80
2017,04,12,15,35,9.80
2017,04,12,15,36,9.80
2017,04,12,15,37,9.90
2017,04,12,15,38,9.80
2017,04,12,15,39,9.80
2017,04,12,15,40,9.80
2017,04,12,15,41,9.70
2017,04,12,15,42,9.60
2017,04,12,15,43,9.60
2017,04,12,15,44,9.50
2017,04,12,15,45,9.40
2017,04,12,15,46,9.40
2017,04,12,15,47,9.30
2017,04,12,15,48,9.30
2017,04,12,15,49,9.30
2017,04,12,15,50,9.30
2017,04,12,15,51,9.30
2017,04,12,15,52,9.30
2017,04,12,15,53,9.30
2017,04,12,15,54,9.30
2017,04,12,15,55,9.30
2017,04,12,15,56,9.30
2017,04,12,15,57,9.30
2017,04,12,15,58,9.20
2017,04,12,15,59,9.30
2017,04,12,16,00,9.20
2017,04,12,16,01,9.20
2017,04,12,16,02,9.20
2017,04,12,16,03,9.20
2017,04,12,16,04,9.20
2017,04,12,16,05,9.20
2017,04,12,16,06,9.20
2017,04,12,16,07,9.20
2017,04,12,16,08,9.20
2017,04,12,16,09,9.20
2017,04,12,16,10,9.20
2017,04,12,16,11,9.20
2017,04,12,16,12,9.20
2017,04,12,16,13,9.20
2017,04,12,16,14,9.20
2017,04,12,16,15,9.20
2017,04,12,16,16,9.20
2017,04,12,16,17,9.20
2017,04,12,16,18,9.20
2017,04,12,16,19,9.20
2017,04,12,16,20,9.20
2017,04,12,16,21,9.20
2017,04,12,16,22,9.20
2017,04,12,16,23,9.10
2017,04,12,16,24,9.10
2017,04,12,16,25,9.10
2017,04,12,16,26,9.10
2017,04,12,16,27,9.10
2017,04,12,16,28,9.10
2017,04,12,16,29,9.10
2017,04,12,16,30,9.10
2017,04,12,16,31,9.10
2017,04,12,16,32,9.10
2017,04,12,16,33,9.10
2017,04,12,16,34,9.10
2017,04,12,16,35,9.10
2017,04,12,16,36,9.10
2017,04,12,16,37,9.10
2017,04,12,16,38,9.10
2017,04,12,16,39,9.10
2017,04,12,16,40,9.10
2017,04,12,16,41,9.10
2017,04,12,16,42,9.10
2017,04,12,16,43,9.10
2017,04,12,16,44,9.10
2017,04,12,16,45,9.10
2017,04,12,16,46,9.20
2017,04,12,16,47,9.20
2017,04,12,16,48,9.20
2017,04,12,16,49,9.20
2017,04,12,16,50,9.20
2017,04,12,16,51,9.20
2017,04,12,16,52,9.20
2017,04,12,16,53,9.20
2017,04,12,16,54,9.20
2017,04,12,16,55,9.30
2017,04,12,16,56,9.30
2017,04,12,16,57,9.30
2017,04,12,16,58,9.20
2017,04,12,16,59,9.20
2017,04,12,17,00,9.20
2017,04,12,17,01,9.20
2017,04,12,17,02,9.20
2017,04,12,17,03,9.20
2017,04,12,17,04,9.20
2017,04,12,17,05,9.20
2017,04,12,17,06,9.20
2017,04,12,17,07,9.20
2017,04,12,17,08,9.20
2017,04,12,17,09,9.20
2017,04,12,17,10,9.20
2017,04,12,17,11,9.20
2017,04,12,17,12,9.20
2017,04,12,17,13,9.20
2017,04,12,17,14,9.20
2017,04,12,17,15,9.20
2017,04,12,17,16,9.20
2017,04,12,17,17,9.20
2017,04,12,17,18,9.20
2017,04,12,17,19,9.20
2017,04,12,17,20,9.20
2017,04,12,17,21,9.20
2017,04,12,17,22,9.20
2017,04,12,17,23,9.20
2017,04,12,17,24,9.20
2017,04,12,17,25,9.20
2017,04,12,17,26,9.20
2017,04,12,17,27,9.20
2017,04,12,17,28,9.20
2017,04,12,17,29,9.30
2017,04,12,17,30,9.30
2017,04,12,17,31,9.30
2017,04,12,17,32,9.30
2017,04,12,17,33,9.30
2017,04,12,17,34,9.30
2017,04,12,17,35,9.30
2017,04,12,17,36,9.30
2017,04,12,17,37,9.30
2017,04,12,17,38,9.30
2017,04,12,17,39,9.40
2017,04,12,17,40,9.40
2017,04,12,17,41,9.40
2017,04,12,17,42,9.30
2017,04,12,17,43,9.40
2017,04,12,17,44,9.30
2017,04,12,17,45,9.30
2017,04,12,17,46,9.30
2017,04,12,17,47,9.40
2017,04,12,17,48,9.40
2017,04,12,17,49,9.40
2017,04,12,17,50,9.40
2017,04,12,17,51,9.40
2017,04,12,17,52,9.40
2017,04,12,17,53,9.40
2017,04,12,17,54,9.40
2017,04,12,17,55,9.40
2017,04,12,17,56,9.40
2017,04,12,17,57,9.40
2017,04,12,17,58,9.40
2017,04,12,17,59,9.40
